Date,TemperatureHighF,TemperatureAvgF,TemperatureLowF,DewpointHighF,DewpointAvgF,DewpointLowF,HumidityHigh,HumidityAvg,HumidityLow,PressureMaxIn,PressureMinIn,WindSpeedMaxMPH,WindSpeedAvgMPH,GustSpeedMaxMPH,PrecipitationSumIn
2013-2-1,48.9,29.7,16.5,22.0,11.9,3.8,79,50,23,30.33,30.02,9,3,11,0.00
2013-2-2,62.6,41.4,24.8,32.5,27.2,20.0,84,60,29,30.13,30.03,7,2,10,0.00
2013-2-3,63.0,47.3,31.1,31.1,26.2,16.9,79,48,17,30.17,29.79,7,3,9,0.00
2013-2-4,72.0,55.5,41.2,39.9,33.7,28.4,72,46,21,29.82,29.68,9,3,13,0.00
2013-2-5,75.4,47.4,28.4,42.7,32.7,26.7,93,63,20,29.90,29.77,6,2,9,0.00
2013-2-6,71.6,50.8,32.5,48.3,38.8,29.9,91,66,39,29.92,29.75,10,3,12,0.00
2013-2-7,60.3,52.4,43.3,54.4,47.9,38.2,93,85,70,30.00,29.69,11,4,13,0.02
2013-2-8,58.3,42.5,34.2,37.7,33.0,30.0,89,71,41,30.18,30.00,7,3,12,0.00
2013-2-9,47.8,41.7,33.3,43.0,36.2,30.8,93,81,59,30.03,29.61,9,4,14,0.09
2013-2-10,65.3,52.6,34.3,49.8,34.7,21.4,96,58,21,29.92,29.48,20,7,23,0.12
2013-2-11,58.5,40.4,28.2,28.0,25.4,20.6,85,59,25,30.08,29.91,10,3,11,0.00
2013-2-12,45.9,38.6,30.9,39.0,31.4,25.5,95,76,52,29.99,29.81,12,3,13,0.30
2013-2-13,60.4,42.0,33.4,37.9,33.2,28.4,96,75,33,29.91,29.79,13,4,13,0.01
2013-2-14,63.7,45.7,28.6,36.0,30.7,24.7,87,59,30,30.06,29.82,11,3,14,0.00
2013-2-15,48.2,36.4,26.2,30.8,19.3,8.6,79,53,21,30.27,30.06,14,6,16,0.00
2013-2-16,47.5,35.1,22.6,26.7,17.1,8.1,79,51,22,30.24,29.94,11,4,13,0.00
2013-2-17,74.5,51.6,29.5,32.3,26.8,17.2,75,42,17,29.94,29.62,11,4,17,0.00
2013-2-18,64.6,54.5,37.8,50.8,37.6,24.3,71,54,34,30.01,29.48,23,8,24,0.00
2013-2-19,55.4,38.8,24.4,26.5,22.3,19.1,85,55,26,30.21,30.02,12,3,14,0.00
2013-2-20,38.7,35.8,31.8,33.5,27.7,17.0,95,74,43,30.14,29.88,7,3,8,0.35
2013-2-21,37.6,34.8,28.9,35.2,32.6,23.9,95,92,80,29.87,29.53,16,4,16,0.90
2013-2-22,42.1,30.2,20.8,22.5,19.9,16.8,85,67,42,30.00,29.81,13,2,13,0.00
2013-2-23,53.1,32.8,18.0,25.1,21.2,15.7,91,67,31,29.99,29.81,7,2,10,0.04
2013-2-24,64.9,43.2,24.4,37.8,30.6,22.0,92,66,34,29.83,29.61,11,3,15,0.00
2013-2-25,44.8,39.5,33.6,38.2,35.0,31.2,95,84,65,29.69,29.33,17,6,26,1.06
2013-2-26,41.4,37.1,33.4,33.2,32.3,30.1,96,83,71,29.77,29.35,24,7,24,0.17
2013-2-27,50.5,38.6,33.8,32.3,29.3,26.7,85,70,43,30.00,29.75,15,6,19,0.00
2013-2-28,46.6,37.5,29.1,30.6,28.1,25.4,87,70,51,30.08,29.99,15,6,17,0.00